FW8688 Weather Reports


Display with metric or nautical units.
time (UTC)temp
F
wind
direction
speed
MPH
gust
MPH
rain 1hr
in
rain 24hr
in
rain mn
in
humidity
%
barometer
mb
20260905093804 70 131 5.0 22.0 0.00 0.00 0.00 40 1012.7
20260905093304 70 122 8.0 22.0 0.00 0.00 0.00 41 1012.6
20260905092804 71 125 6.0 22.0 0.00 0.00 0.00 41 1012.5
20260905092306 71 132 8.0 22.0 0.00 0.00 0.00 42 1012.5
20260905091804 71 125 8.0 22.0 0.00 0.00 0.00 43 1012.4
20260905091303 71 121 6.0 22.0 0.00 0.00 0.00 42 1012.4
20260905090804 72 124 6.0 22.0 0.00 0.00 0.00 42 1012.4
20260905090304 72 134 6.0 22.0 0.00 0.00 0.00 41 1012.3
20260905085804 73 130 6.0 22.0 0.00 0.00 0.00 40 1012.3
20260905085306 73 137 7.0 22.0 0.00 0.00 0.00 39 1012.2
20260905084804 73 129 6.0 22.0 0.00 0.00 0.00 39 1012.2
20260905084303 73 148 7.0 22.0 0.00 0.00 0.00 38 1012.1
20260905083804 73 135 6.0 22.0 0.00 0.00 0.00 37 1012.1
20260905083303 73 136 7.0 22.0 0.00 0.00 0.00 37 1012.1
20260905082803 73 150 6.0 22.0 0.00 0.00 0.00 37 1012.0
20260905082307 74 148 6.0 22.0 0.00 0.00 0.00 37 1012.1
20260905081804 74 142 7.0 22.0 0.00 0.00 0.00 37 1012.0
20260905081304 74 148 6.0 22.0 0.00 0.00 0.00 37 1011.9
20260905080804 74 145 7.0 22.0 0.00 0.00 0.00 37 1011.9
20260905080304 74 147 7.0 22.0 0.00 0.00 0.00 36 1011.8
20260905075804 74 140 7.0 22.0 0.00 0.00 0.00 36 1011.8
20260905075306 75 135 9.0 22.0 0.00 0.00 0.00 36 1011.8
20260905074804 75 135 8.0 22.0 0.00 0.00 0.00 37 1011.7
20260905074303 75 137 10.0 22.0 0.00 0.00 0.00 37 1011.6
20260905073303 75 131 10.0 22.0 0.00 0.00 0.00 38 1011.4
20260905072803 75 131 10.0 22.0 0.00 0.00 0.00 38 1011.4
20260905072306 74 128 9.0 22.0 0.00 0.00 0.00 38 1011.3
20260905071804 74 159 7.0 22.0 0.00 0.00 0.00 39 1011.3
20260905071303 74 133 9.0 22.0 0.00 0.00 0.00 40 1011.3
20260905070804 74 118 9.0 22.0 0.00 0.00 0.00 40 1011.2
20260905070304 74 126 7.0 22.0 0.00 0.00 0.00 41 1011.2
20260905065804 74 138 8.0 22.0 0.00 0.00 0.00 41 1011.2
20260905065306 74 120 7.0 22.0 0.00 0.00 0.00 41 1011.1
20260905064804 75 125 7.0 22.0 0.00 0.00 0.00 41 1011.1
20260905064303 75 120 7.0 22.0 0.00 0.00 0.00 40 1011.0
20260905063804 75 131 6.0 22.0 0.00 0.00 0.00 37 1010.7
20260905063304 75 127 6.0 22.0 0.00 0.00 0.00 36 1010.7
20260905062804 75 132 5.0 22.0 0.00 0.00 0.00 37 1010.7
20260905062306 76 149 5.0 22.0 0.00 0.00 0.00 36 1010.6
20260905061803 76 170 4.0 7.0 0.00 0.00 0.00 37 1010.6
20260905061303 76 165 4.0 22.0 0.00 0.00 0.00 36 1010.4
20260905060804 77 193 6.0 22.0 0.00 0.00 0.00 35 1010.4
20260905060304 76 205 5.0 22.0 0.00 0.00 0.00 37 1010.4
20260905055803 76 179 7.0 22.0 0.00 0.00 0.00 35 1010.1
20260905055306 76 157 6.0 22.0 0.00 0.00 0.00 36 1010.1
20260905054804 76 172 6.0 22.0 0.00 0.00 0.00 35 1010.1
20260905054304 77 158 6.0 22.0 0.00 0.00 0.00 35 1010.1
20260905053304 77 166 5.0 22.0 0.00 0.00 0.00 34 1010.1
20260905052306 77 180 6.0 22.0 0.00 0.00 0.00 34 1009.9
20260905051804 77 178 6.0 22.0 0.00 0.00 0.00 34 1009.9
20260905051304 77 177 8.0 22.0 0.00 0.00 0.00 33 1009.9
20260905050803 77 149 5.0 22.0 0.00 0.00 0.00 35 1009.9
20260905045805 76 137 8.0 22.0 0.00 0.00 0.00 35 1009.8
20260905045306 76 125 7.0 22.0 0.00 0.00 0.00 37 1009.9
20260905044305 76 157 5.0 22.0 0.00 0.00 0.00 38 1009.9
20260905043805 77 139 7.0 22.0 0.00 0.00 0.00 37 1009.9
20260905043305 77 122 4.0 22.0 0.00 0.00 0.00 34 1009.8
20260905042805 77 111 4.0 22.0 0.00 0.00 0.00 34 1009.8
20260905041305 79 126 4.0 22.0 0.00 0.00 0.00 28 1009.5
20260905040805 79 198 2.0 22.0 0.00 0.00 0.00 24 1009.3
20260905040306 79 142 1.0 22.0 0.00 0.00 0.00 23 1009.3
20260905035805 79 201 2.0 22.0 0.00 0.00 0.00 24 1009.2
20260905035306 79 237 2.0 22.0 0.00 0.00 0.00 27 1009.2
20260905034805 79 200 3.0 22.0 0.00 0.00 0.00 29 1009.2
20260905034305 79 180 3.0 22.0 0.00 0.00 0.00 29 1009.3
20260905033805 79 176 5.0 22.0 0.00 0.00 0.00 29 1009.3
20260905032805 79 179 6.0 22.0 0.00 0.00 0.00 32 1009.4
20260905031805 80 152 6.0 22.0 0.00 0.00 0.00 35 1009.4
20260905031305 81 166 6.0 22.0 0.00 0.00 0.00 32 1008.7
20260905030805 82 155 5.0 22.0 0.00 0.00 0.00 28 1008.7
20260905030306 82 172 5.0 22.0 0.00 0.00 0.00 22 1008.7
20260905025805 83 188 5.0 22.0 0.00 0.00 0.00 22 1008.7
20260905025306 83 199 3.0 22.0 0.00 0.00 0.00 22 1008.6
20260905024805 83 203 3.0 22.0 0.00 0.00 0.00 22 1008.2
20260905024306 84 202 8.0 22.0 0.00 0.00 0.00 21 1008.2
20260905023805 84 199 7.0 22.0 0.00 0.00 0.00 22 1008.2
20260905023305 84 205 9.0 22.0 0.00 0.00 0.00 21 1008.1
20260905022805 84 222 11.0 22.0 0.00 0.00 0.00 21 1008.1
20260905022306 84 206 8.0 22.0 0.00 0.00 0.00 22 1008.1
20260905021805 84 196 10.0 22.0 0.00 0.00 0.00 22 1008.1
20260905021305 84 187 12.0 22.0 0.00 0.00 0.00 21 1008.0
20260905020805 84 193 12.0 22.0 0.00 0.00 0.00 22 1008.0
20260905020305 84 191 9.0 22.0 0.00 0.00 0.00 22 1008.0
20260905015805 84 186 11.0 22.0 0.00 0.00 0.00 22 1008.1
20260905015306 84 197 10.0 22.0 0.00 0.00 0.00 22 1008.1
20260905014805 85 187 9.0 22.0 0.00 0.00 0.00 22 1008.1
20260905014305 85 202 10.0 22.0 0.00 0.00 0.00 22 1008.1
20260905013305 85 193 12.0 22.0 0.00 0.00 0.00 21 1008.1
20260905012805 85 203 10.0 22.0 0.00 0.00 0.00 21 1008.1
20260905012306 85 193 10.0 22.0 0.00 0.00 0.00 21 1008.1
20260905011805 86 194 10.0 22.0 0.00 0.00 0.00 21 1008.0
20260905011305 86 210 9.0 22.0 0.00 0.00 0.00 21 1008.1
20260905010305 86 199 8.0 22.0 0.00 0.00 0.00 21 1008.0
20260905005805 86 200 12.0 22.0 0.00 0.00 0.00 21 1008.0
20260905005306 86 212 9.0 22.0 0.00 0.00 0.00 20 1008.0
20260905004805 86 230 12.0 22.0 0.00 0.00 0.00 20 1008.2
20260905004306 86 188 10.0 22.0 0.00 0.00 0.00 20 1008.2
20260905003805 87 206 13.0 22.0 0.00 0.00 0.00 20 1008.0
20260905003305 87 192 9.0 22.0 0.00 0.00 0.00 20 1008.0
20260905002306 87 178 8.0 22.0 0.00 0.00 0.00 20 1008.0
20260905001305 87 169 8.0 22.0 0.00 0.00 0.00 19 1008.0
20260905000805 87 182 10.0 22.0 0.00 0.00 0.00 19 1008.0
20260905000305 87 178 8.0 22.0 0.00 0.00 0.00 20 1008.1
20260904235805 87 164 9.0 22.0 0.00 0.00 0.00 20 1008.1
20260904235306 87 179 9.0 22.0 0.00 0.00 0.00 20 1008.1
20260904234805 87 178 10.0 22.0 0.00 0.00 0.00 20 1008.1
20260904234305 87 174 9.0 22.0 0.00 0.00 0.00 23 1008.1
20260904233805 87 174 9.0 22.0 0.00 0.00 0.00 21 1008.1
20260904232805 87 153 10.0 22.0 0.00 0.00 0.00 21 1008.1
20260904231805 87 151 9.0 22.0 0.00 0.00 0.00 20 1008.1
20260904230805 87 152 7.0 22.0 0.00 0.00 0.00 20 1008.1
20260904230305 88 146 9.0 22.0 0.00 0.00 0.00 19 1008.1
20260904225805 88 158 9.0 22.0 0.00 0.00 0.00 18 1008.3
20260904225306 88 158 8.0 22.0 0.00 0.00 0.00 18 1008.3
20260904224805 88 148 9.0 22.0 0.00 0.00 0.00 18 1008.1
20260904223805 87 161 9.0 22.0 0.00 0.00 0.00 17 1008.3
20260904222805 87 156 9.0 22.0 0.00 0.00 0.00 18 1008.3
20260904222306 87 145 10.0 22.0 0.00 0.00 0.00 18 1008.6
20260904221805 87 139 10.0 22.0 0.00 0.00 0.00 19 1008.6
20260904221305 87 153 10.0 22.0 0.00 0.00 0.00 18 1008.6
20260904220804 87 166 9.0 22.0 0.00 0.00 0.00 18 1008.8
20260904220305 87 156 9.0 22.0 0.00 0.00 0.00 19 1008.8
20260904215806 87 151 10.0 22.0 0.00 0.00 0.00 18 1008.9
20260904215305 87 128 10.0 22.0 0.00 0.00 0.00 18 1008.9
20260904214805 87 165 9.0 22.0 0.00 0.00 0.00 19 1009.0
20260904213805 86 163 9.0 22.0 0.00 0.00 0.00 19 1009.1
20260904213305 86 158 11.0 22.0 0.00 0.00 0.00 20 1009.2
20260904212805 86 144 9.0 22.0 0.00 0.00 0.00 20 1009.1
20260904212306 87 160 11.0 22.0 0.00 0.00 0.00 18 1009.3
20260904211805 87 154 9.0 22.0 0.00 0.00 0.00 18 1009.3
20260904211305 86 157 9.0 22.0 0.00 0.00 0.00 18 1009.3
20260904210805 86 144 9.0 22.0 0.00 0.00 0.00 17 1009.3
20260904210305 86 137 11.0 22.0 0.00 0.00 0.00 17 1009.3
20260904205805 86 155 9.0 22.0 0.00 0.00 0.00 18 1009.3
20260904205306 86 113 7.0 22.0 0.00 0.00 0.00 18 1009.5
20260904204805 85 143 10.0 22.0 0.00 0.00 0.00 20 1009.5
20260904204305 85 122 10.0 22.0 0.00 0.00 0.00 19 1009.5
20260904203805 85 129 13.0 22.0 0.00 0.00 0.00 19 1009.5
20260904203305 85 139 10.0 22.0 0.00 0.00 0.00 20 1009.5
20260904202306 85 147 9.0 22.0 0.00 0.00 0.00 20 1009.7
20260904201805 85 129 11.0 22.0 0.00 0.00 0.00 20 1009.7
20260904201305 85 143 10.0 22.0 0.00 0.00 0.00 21 1010.1
20260904200805 84 146 9.0 22.0 0.00 0.00 0.00 22 1010.1
20260904200305 84 129 10.0 22.0 0.00 0.00 0.00 21 1010.1
20260904195805 83 143 9.0 22.0 0.00 0.00 0.00 22 1010.1
20260904195306 83 144 9.0 22.0 0.00 0.00 0.00 22 1010.1
20260904194805 83 145 10.0 22.0 0.00 0.00 0.00 23 1010.5
20260904194305 83 129 13.0 22.0 0.00 0.00 0.00 23 1010.5
20260904193805 83 142 11.0 22.0 0.00 0.00 0.00 24 1010.5
20260904193304 82 143 11.0 22.0 0.00 0.00 0.00 24 1010.5
20260904192805 82 155 11.0 22.0 0.00 0.00 0.00 26 1010.5
20260904191305 81 117 12.0 22.0 0.00 0.00 0.00 26 1010.6
20260904190804 81 124 12.0 21.0 0.00 0.00 0.00 25 1010.9
20260904190305 81 133 11.0 21.0 0.00 0.00 0.00 26 1010.9
20260904185804 81 140 13.0 21.0 0.00 0.00 0.00 25 1011.3
20260904185306 81 148 13.0 21.0 0.00 0.00 0.00 26 1011.3
20260904184805 81 135 11.0 21.0 0.00 0.00 0.00 26 1011.3
20260904183805 80 132 10.0 21.0 0.00 0.00 0.00 27 1011.2
20260904182805 80 130 10.0 21.0 0.00 0.00 0.00 27 1011.2
20260904182306 80 145 10.0 21.0 0.00 0.00 0.00 26 1011.2
20260904181806 80 149 9.0 21.0 0.00 0.00 0.00 28 1011.3
20260904181305 80 141 10.0 21.0 0.00 0.00 0.00 28 1011.5
20260904180805 80 131 9.0 21.0 0.00 0.00 0.00 28 1011.5
20260904180305 80 146 9.0 21.0 0.00 0.00 0.00 28 1011.5
20260904175805 79 138 10.0 21.0 0.00 0.00 0.00 28 1011.5
20260904175306 79 117 12.0 21.0 0.00 0.00 0.00 28 1011.5
20260904174805 79 127 14.0 21.0 0.00 0.00 0.00 28 1011.6
20260904174305 79 142 13.0 20.0 0.00 0.00 0.00 28 1011.6
20260904173805 79 120 12.0 20.0 0.00 0.00 0.00 28 1011.5
20260904173305 79 133 12.0 20.0 0.00 0.00 0.00 27 1011.6
20260904172805 79 125 10.0 20.0 0.00 0.00 0.00 28 1011.5
20260904172306 79 148 10.0 20.0 0.00 0.00 0.00 28 1011.7
20260904171805 79 137 8.0 20.0 0.00 0.00 0.00 28 1011.6
20260904171305 78 144 6.0 20.0 0.00 0.00 0.00 29 1011.6
20260904170805 78 149 7.0 20.0 0.00 0.00 0.00 28 1011.7
20260904165305 77 125 7.0 20.0 0.00 0.00 0.00 28 1011.7
20260904164805 75 135 4.0 20.0 0.00 0.00 0.00 31 1011.7
20260904164305 74 187 3.0 20.0 0.00 0.00 0.00 37 1011.7
20260904163805 74 204 6.0 20.0 0.00 0.00 0.00 36 1011.7
20260904163305 75 198 6.0 20.0 0.00 0.00 0.00 35 1011.7
20260904162805 74 159 7.0 20.0 0.00 0.00 0.00 33 1011.7
20260904162306 73 143 7.0 20.0 0.00 0.00 0.00 33 1011.7
20260904155805 72 128 10.0 20.0 0.00 0.00 0.00 39 1011.7
20260904155307 71 131 8.0 20.0 0.00 0.00 0.00 40 1011.7
20260904154805 71 137 8.0 20.0 0.00 0.00 0.00 40 1011.7
20260904154305 71 116 9.0 20.0 0.00 0.00 0.00 42 1011.6
20260904153804 70 141 6.0 20.0 0.00 0.00 0.00 43 1011.6
20260904153305 70 133 6.0 20.0 0.00 0.00 0.00 43 1011.6
20260904152805 70 132 6.0 20.0 0.00 0.00 0.00 44 1011.6
20260904152306 70 157 6.0 20.0 0.00 0.00 0.00 42 1011.5
20260904151305 69 153 5.0 20.0 0.00 0.00 0.00 42 1011.5
20260904150804 68 142 5.0 20.0 0.00 0.00 0.00 42 1011.5
20260904150305 68 145 5.0 20.0 0.00 0.00 0.00 45 1011.6
20260904145804 67 150 4.0 20.0 0.00 0.00 0.00 48 1011.7
20260904145306 67 177 3.0 20.0 0.00 0.00 0.00 50 1011.7
20260904144805 67 145 5.0 20.0 0.00 0.00 0.00 50 1011.7
20260904144304 67 159 4.0 20.0 0.00 0.00 0.00 53 1011.7
20260904143305 66 184 1.0 20.0 0.00 0.00 0.00 56 1011.6
20260904142805 66 154 2.0 20.0 0.00 0.00 0.00 57 1011.6
20260904142306 66 195 2.0 20.0 0.00 0.00 0.00 58 1011.6
20260904141804 65 107 1.0 20.0 0.00 0.00 0.00 58 1011.5
20260904140805 65 148 5.0 20.0 0.00 0.00 0.00 56 1011.5
20260904140305 64 119 1.0 20.0 0.00 0.00 0.00 57 1011.2
20260904135805 64 105 1.0 20.0 0.00 0.00 0.00 57 1011.2
20260904135306 64 127 3.0 20.0 0.00 0.00 0.00 58 1011.2
20260904134804 64 149 3.0 20.0 0.00 0.00 0.00 58 1011.2
20260904133304 63 162 4.0 20.0 0.00 0.00 0.00 58 1011.1
20260904132805 63 159 3.0 20.0 0.00 0.00 0.00 57 1011.1
20260904132306 64 179 4.0 20.0 0.00 0.00 0.00 56 1010.7
20260904131305 64 135 5.0 20.0 0.00 0.00 0.00 52 1010.7
20260904130805 64 127 3.0 20.0 0.00 0.00 0.00 51 1010.7
20260904130304 65 156 6.0 20.0 0.00 0.00 0.00 50 1010.5
20260904125805 65 124 6.0 20.0 0.00 0.00 0.00 53 1010.5
20260904124805 66 144 6.0 20.0 0.00 0.00 0.00 51 1010.3
20260904124305 67 145 6.0 20.0 0.00 0.00 0.00 49 1010.3
20260904123804 68 169 6.0 20.0 0.00 0.00 0.00 45 1010.3
20260904123305 69 152 6.0 20.0 0.00 0.00 0.00 38 1010.3
20260904122306 70 143 6.0 20.0 0.00 0.00 0.00 26 1010.1
20260904121805 70 142 7.0 20.0 0.00 0.00 0.00 25 1010.0
20260904121305 70 159 6.0 20.0 0.00 0.00 0.00 24 1010.0
20260904120304 70 159 6.0 20.0 0.00 0.00 0.00 26 1009.8
20260904115306 70 154 6.0 20.0 0.00 0.00 0.00 26 1009.6
20260904114304 70 152 7.0 20.0 0.00 0.00 0.00 27 1009.6
20260904113304 70 143 6.0 20.0 0.00 0.00 0.00 29 1009.6
20260904112805 71 138 7.0 20.0 0.00 0.00 0.00 28 1009.6
20260904111805 72 140 10.0 20.0 0.00 0.00 0.00 24 1009.5
20260904111305 72 147 6.0 20.0 0.00 0.00 0.00 22 1009.5
20260904110805 72 150 9.0 20.0 0.00 0.00 0.00 20 1009.4
20260904110305 72 148 8.0 20.0 0.00 0.00 0.00 19 1009.4
20260904105805 72 138 7.0 20.0 0.00 0.00 0.00 19 1009.4
20260904104305 73 145 10.0 20.0 0.00 0.00 0.00 18 1009.3
20260904103805 73 133 7.0 20.0 0.00 0.00 0.00 17 1009.3
20260904103305 73 139 9.0 20.0 0.00 0.00 0.00 16 1009.3
20260904102804 73 157 9.0 20.0 0.00 0.00 0.00 17 1009.3
20260904102307 74 143 7.0 20.0 0.00 0.00 0.00 16 1009.3
20260904101804 74 156 8.0 20.0 0.00 0.00 0.00 17 1008.8
20260904101304 74 157 10.0 20.0 0.00 0.00 0.00 16 1008.8
20260904100805 74 138 9.0 20.0 0.00 0.00 0.00 16 1008.8
20260904100304 74 141 10.0 20.0 0.00 0.00 0.00 16 1008.6
20260904094804 73 132 11.0 17.0 0.00 0.00 0.00 18 1008.6
20260904094304 73 124 10.0 17.0 0.00 0.00 0.00 17 1008.6